#timestamp,LO_Frequency,Hit,StdDev 
1561129215.6,286047001.0,N
1561129235.4,286046998.6,N
1561129255.3,286046998.2,N
1561129275.1,286046998.6,N
1561129276.0,286046998.6,N
1561129295.8,286047000.4,N
1561129315.7,286047000.9,N
1561129335.5,286047001.2,N
1561129355.3,286046998.7,N
1561129375.2,286047000.7,N
1561129395.9,286046999.0,N
1561129415.7,286047000.8,N
1561129435.6,286046998.1,N
1561129455.4,286046998.3,N
1561129475.2,286047000.1,N
1561129495.1,286047000.4,N
1561129496.0,286047000.4,N
1561129515.8,286047000.6,N
1561129535.6,286047000.9,N
1561129555.5,286046999.9,N
1561129575.3,286046998.6,N
1561129595.1,286047000.6,N
1561129615.9,286046998.4,N
1561129635.7,286047001.2,N
1561129655.5,286047000.1,N
1561129675.4,286047000.0,N
1561129695.2,286047000.9,N
1561129715.0,286047000.4,N
1561129715.9,286047000.4,N
1561129735.8,286046999.8,N
1561129755.6,286046999.9,N
1561129775.4,286047000.5,N
1561129795.3,286047000.6,N
1561129815.1,286047000.8,N
1561129835.9,286047001.0,N
1561129855.7,286047000.8,N
1561129875.5,286047000.8,N
1561129895.4,286046999.0,N
1561129915.2,286046999.3,N
1561129935.0,286046999.5,N
1561129935.9,286046999.5,N
1561129955.8,286046998.7,N
1561129975.6,286046998.8,N
1561129995.4,286046998.8,N
1561130015.3,286047000.5,N
1561130035.1,286047000.1,N
1561130036.0,286047000.1,N
1561130055.8,286046998.2,N
1561130105.7,286047000.8,E
1561130115.6,286046999.0,N
1561130135.4,286046998.7,P
1561130155.3,286046997.0,P
1561130175.1,286046996.5,Y
1561130195.8,286046998.9,P
1561130215.7,286047000.9,N
1561130235.5,286046998.4,N
1561130255.3,286046999.3,N
1561130275.2,286047000.8,N
1561130295.0,286047000.3,N
1561130295.9,286047000.3,N
1561130315.8,286047000.3,N
1561130335.6,286047000.2,N
1561130355.4,286047000.3,N
1561130375.3,286046999.7,N
1561130395.1,286046998.5,N
1561130396.0,286046998.5,N
1561130415.8,286046999.0,N
1561130435.7,286046999.2,N
1561130455.5,286047000.8,N
1561130475.3,286047000.7,N
1561130495.2,286047000.9,N
1561130515.9,286046998.3,N
1561130535.7,286047001.1,N
1561130555.6,286046998.8,N
1561130575.4,286046998.9,N
1561130595.2,286046999.0,N
1561130615.1,286047002.7,N
1561130616.0,286047002.7,N
1561130635.8,286047002.6,N
1561130655.6,286047002.8,N
1561130675.5,286047002.8,N
1561130695.3,286047002.4,N
1561130715.1,286047000.9,N
1561130735.9,286047001.2,N
1561130755.7,286047000.2,N
1561130775.5,286046998.5,N
1561130795.4,286046999.7,N
1561130815.2,286047000.9,N
1561130835.0,286047000.9,N
1561130835.9,286047000.9,N
1561130855.8,286047002.4,N
1561130875.6,286047002.3,N
1561130895.4,286047001.8,N
1561130915.3,286047002.0,N
1561130935.1,286047002.0,N
1561130955.8,286047001.3,N
1561130975.7,286047004.0,N
1561130995.5,286047004.4,N
1561131015.3,286047006.9,Y
1561131035.2,286047004.2,P
1561131055.0,286047000.0,N
1561131055.9,286047000.0,N
1561131075.7,286046998.2,N
1561131095.6,286046998.9,N
1561131115.4,286046997.0,N
1561131135.2,286046997.6,N
1561131155.1,286046998.9,N
1561131156.0,286046998.9,N
1561131175.8,286046999.2,N
1561131195.6,286046998.5,N
1561131215.5,286047001.1,N
1561131235.3,286046996.5,N
1561131255.1,286046995.5,N
1561131275.9,286046997.7,N
1561131295.7,286046997.0,N
1561131315.5,286046997.6,N
1561131335.4,286046995.7,N
1561131355.2,286046995.8,N
1561131375.0,286046996.4,N
1561131376.0,286046996.4,N
1561131395.8,286046995.5,N
1561131415.6,286046995.4,N
1561131435.5,286046993.8,N
1561131455.3,286046993.6,N
1561131475.1,286046992.1,Y
1561131495.9,286046997.4,P
1561131515.7,286046997.4,P
1561131535.5,286046997.5,P
1561131555.4,286046996.1,Y
1561131575.2,286046997.9,P
1561131595.0,286046996.2,P
1561131595.9,286046996.2,P
1561131615.8,286046995.7,Y
1561131635.6,286046999.4,P
1561131655.4,286046998.8,N
1561131675.3,286047000.4,N
1561131695.1,286046998.2,N
1561131696.0,286046998.2,N
1561131715.8,286046998.2,N
1561131735.7,286047000.3,N
1561131755.5,286047000.1,N
1561131775.3,286047004.1,Y
1561131795.2,286047004.3,P
1561131815.9,286047004.2,N
1561131835.7,286047003.6,N
1561131855.6,286047004.4,N
1561131875.4,286047001.7,N
1561131895.2,286047002.5,N
1561131915.1,286047001.6,N
1561131916.0,286047001.6,N
1561131935.8,286047002.6,N
1561131955.6,286047002.5,N
1561131975.5,286047002.5,N
1561131995.3,286047000.4,N
1561132015.1,286047001.8,N
1561132035.9,286047002.3,N
1561132055.7,286047002.5,N
1561132075.5,286047002.6,N
1561132095.4,286047000.8,N
1561132115.2,286047000.0,N
1561132135.0,286047000.3,N
1561132135.9,286047000.3,N
1561132155.8,286047000.8,N
1561132175.6,286047000.4,N
1561132195.4,286047000.3,N
1561132215.3,286047000.4,N
1561132235.1,286047000.9,N
1561132255.8,286047000.8,N
1561132275.7,286047000.5,N
1561132295.5,286047001.8,N
1561132315.3,286047003.8,N
1561132335.2,286047004.1,N
1561132355.0,286047003.8,N
1561132355.9,286047003.8,N
1561132375.8,286047006.0,Y
1561132395.6,286047003.7,P
1561132415.4,286047001.4,N
1561132435.2,286047001.5,N
1561132455.1,286047002.4,N
1561132456.0,286047002.4,N
1561132475.8,286047002.3,N
1561132495.7,286047001.5,N
1561132515.5,286047001.3,N
1561132535.3,286047005.8,Y
1561132555.2,286047001.7,P
1561132575.9,286047003.2,P
1561132595.7,286047005.8,P
1561132615.6,286047005.3,Y
1561132635.4,286047002.7,P
1561132655.2,286047000.7,N
1561132675.1,286046999.1,N
1561132676.0,286046999.1,N
1561132695.8,286046999.3,N
1561132715.6,286046998.3,N
1561132735.5,286046998.6,N
1561132755.3,286046999.0,N
1561132775.1,286046999.2,N
1561132795.9,286046999.0,N
